Back to catalog

STARLINK-36965

AliveCommunicationsVLEO
NORAD 68961·PAYLOAD·🇺🇸 United States

Launched May 1, 2026 from Cape Canaveral Space Force Station

Loading…

Next Passes (next 24 hours)

TLE

FreshSource: CelesTrak SupGP

Epoch: Sep 14, 2026, 21:22 UTC

1 68961C 26099L   26257.89076389 -.00001986  00000+0 -58700-4 0  2574
2 68961  53.1576 102.0637 0001373  82.7199 244.9979 15.34386149    17

Track STARLINK-36965 in real time with AllMySat

Download on the App Store